TimeGMT,TemperatureF,Dew PointF,Humidity,Sea Level PressureIn,VisibilityMPH,Wind Direction,Wind SpeedMPH,Gust SpeedMPH,PrecipitationIn,Events,Conditions,WindDirDegrees,DateUTC
12:50 AM,42.8,39.2,87,29.98,6.2,SSE,18.4,-,N/A,,Haze,150,2013-01-25 00:50:00
1:50 AM,44.6,37.4,76,29.98,6.2,South,15.0,-,N/A,,Haze,180,2013-01-25 01:50:00
2:50 AM,43,36,69,29.99,9,South,15.0,,,,Haze,180,2013-01-25 02:50:00
2:50 AM,42.8,35.6,76,29.98,6.2,South,15.0,-,N/A,,Haze,180,2013-01-25 02:50:00
3:50 AM,42.8,35.6,76,29.95,6.2,South,15.0,-,N/A,,Haze,170,2013-01-25 03:50:00
4:50 AM,42.8,35.6,76,29.95,6.2,South,19.6,-,N/A,,Haze,170,2013-01-25 04:50:00
5:50 AM,43,36,70,29.95,12,South,18.4,,,,Overcast,170,2013-01-25 05:50:00
5:50 AM,42.8,37.4,81,29.92,6.2,South,18.4,-,N/A,,Overcast,170,2013-01-25 05:50:00
6:50 AM,42.8,37.4,81,29.89,6.2,SSE,23.0,-,N/A,Rain,Light Rain,160,2013-01-25 06:50:00
7:50 AM,42.8,39.2,87,29.89,5.0,SSE,17.3,33.4,N/A,Rain,Light Rain,160,2013-01-25 07:50:00
8:50 AM,42,40,88,29.90,2,South,17.3,,,Rain,Rain,170,2013-01-25 08:50:00
8:50 AM,42.8,39.2,87,29.89,2.5,South,17.3,31.1,N/A,Rain,Rain,170,2013-01-25 08:50:00
9:50 AM,42.8,41.0,93,29.86,2.5,SSE,18.4,33.4,N/A,Rain,Light Rain,160,2013-01-25 09:50:00
10:50 AM,42.8,41.0,93,29.86,1.6,SSE,16.1,31.1,N/A,,Light Drizzle,150,2013-01-25 10:50:00
11:50 AM,44,43,97,29.83,0,SSE,16.1,,,Rain,Heavy Rain,160,2013-01-25 11:50:00
11:50 AM,44.6,42.8,93,29.80,0.4,SSE,16.1,27.6,N/A,Rain,Rain,160,2013-01-25 11:50:00
12:50 PM,44.6,44.6,100,29.77,0.7,South,16.1,38.0,N/A,Rain,Rain,180,2013-01-25 12:50:00
1:50 PM,46.4,44.6,93,29.71,1.2,South,16.1,31.1,N/A,Rain,Light Rain,190,2013-01-25 13:50:00
2:50 PM,46,45,95,29.68,3,South,19.6,,,Rain,Light Rain,190,2013-01-25 14:50:00
2:50 PM,46.4,44.6,93,29.65,3.1,South,19.6,38.0,N/A,,Mostly Cloudy,190,2013-01-25 14:50:00
3:50 PM,46.4,46.4,100,29.62,3.7,South,20.7,40.3,N/A,,Mostly Cloudy,190,2013-01-25 15:50:00
4:50 PM,48.2,46.4,93,29.56,1.9,South,23.0,42.6,N/A,Rain,Light Rain Showers,190,2013-01-25 16:50:00
5:50 PM,48,47,96,29.52,2,SSW,27.6,,,Rain,Light Rain,200,2013-01-25 17:50:00
5:50 PM,48.2,48.2,100,29.50,1.9,SSW,27.6,42.6,N/A,Rain,Light Rain,200,2013-01-25 17:50:00
6:50 PM,48.2,48.2,100,29.44,1.2,SSW,26.5,42.6,N/A,Rain,Light Rain,200,2013-01-25 18:50:00
7:50 PM,50.0,50.0,100,29.42,0.1,WSW,20.7,-,N/A,Rain,Light Rain,240,2013-01-25 19:50:00
8:50 PM,50,49,96,29.44,2,West,16.1,,,Rain,Light Rain,270,2013-01-25 20:50:00
8:50 PM,50.0,50.0,100,29.42,1.9,West,16.1,-,N/A,Rain,Light Rain,270,2013-01-25 20:50:00
9:50 PM,50.0,48.2,94,29.44,4.3,NW,27.6,41.4,N/A,Rain,Light Rain,310,2013-01-25 21:50:00
10:50 PM,48.2,44.6,87,29.50,6.2,NNW,27.6,39.1,N/A,,Mostly Cloudy,330,2013-01-25 22:50:00
11:50 PM,48,44,81,29.59,12,NNW,34.5,,,,Partly Cloudy,330,2013-01-25 23:50:00
11:50 PM,48.2,44.6,87,29.56,6.2,NNW,34.5,49.5,N/A,,Mostly Cloudy,330,2013-01-25 23:50:00